Regional Weather Roundup
Issued by NWS

Home | Current Version | Previous Version | Graphics & Text | Print | Product List | Glossary On
Versions: 1 2 3 4 5 6 7 8 9 10 11 12 13 14 15 16 17 18 19 20 21 22 23 24 25 26 27 28 29 30 31 32 33 34 35 36 37 38 39 40 41 42 43 44 45 46 47 48 49 50
000
ASUS43 KLSX 201707
RWRMO

WEATHER SUMMARY FOR MISSOURI
NATIONAL WEATHER SERVICE SPRINGFIELD MO
1200 PM CDT SAT SEP 20 2014

NOTE: "FAIR" INDICATES FEW OR NO CLOUDS BELOW 12,000 FEET WITH NO
       SIGNIFICANT WEATHER AND/OR OBSTRUCTIONS TO VISIBILITY.
       CURRENT SKY AND/OR WEATHER CONDITIONS ARE NOT AVAILABLE FOR
       CHILLICOTHE AND FARMINGTON.

MOZ001>031-035>038-043-044-053-054-201800-
...NORTHERN AND WESTERN MISSOURI...

CITY           SKY/WX    TMP DP  RH WIND       PRES   REMARKS
KANSAS CTY INT PTSUNNY   80  71  74 SW8       30.00R
KANSAS C DTWN  PTSUNNY   84  70  62 SW12      29.99R
LEE`S SUMMIT   SUNNY     81  70  69 SW16G22   30.00F
ST JOSEPH      CLOUDY    75  69  81 W6        29.97R
CHILLICOTHE      N/A     75  70  84 SW8       29.94F
KIRKSVILLE     CLOUDY    74  68  81 SW10      29.94F HAZE

$$
MOZ066>068-077>081-088>096-101>105-201800-
...SOUTHWEST MISSOURI...

CITY           SKY/WX    TMP DP  RH WIND       PRES   REMARKS
SPRINGFIELD    MOSUNNY   79  68  69 SW12      30.08S
JOPLIN         PTSUNNY   82  71  69 SW10      30.07S

$$
MOZ032>034-039>042-045>050-055>058-069>072-201800-
...CENTRAL MISSOURI...

CITY           SKY/WX    TMP DP  RH WIND       PRES   REMARKS
COLUMBIA       MOSUNNY   81  71  71 SW16      30.00F
JEFFERSON CITY MOSUNNY   83  68  60 W10G17    30.00F
ROLLA          SUNNY     79  68  69 SW13      30.04F
SEDALIA        SUNNY     82  69  64 SW15G21   30.01F
WHITEMAN AFB   SUNNY     81  70  70 SW15      29.99F
OSAGE BEACH    MOSUNNY   81  68  65 SW9       30.05S

$$
MOZ051-052-059>065-201800-
...EAST CENTRAL MISSOURI...

CITY           SKY/WX    TMP DP  RH WIND       PRES   REMARKS
ST LOUIS INTL  PTSUNNY   82  69  64 SW10      30.01F
SPIRIT OF STL  MOSUNNY   80  69  69 SW10      30.00F
ST CHARLES     SUNNY     82  68  62 SW10G18   29.98F

$$
MOZ072>076-082>087-097>100-106>115-201800-
...SOUTH CENTRAL AND SOUTHEAST MISSOURI...

CITY           SKY/WX    TMP DP  RH WIND       PRES   REMARKS
CAPE GIRARDEAU MOSUNNY   82  70  66 SW6       30.06F
FARMINGTON     MOSUNNY   81  68  65 SW7       30.07F
POPLAR BLUFF   SUNNY     83  65  54 SW8       30.06F
WEST PLAINS    MOSUNNY   80  67  64 W10       30.10F

$$



USA.gov is the U.S. government's official web portal to all federal, state and local government web resources and services.